Regional Weather Roundup
Issued by NWS

Home | Current Version | Previous Version | Text Only | Print | Product List | Glossary Off
Versions: 1 2 3 4 5 6 7 8 9 10 11 12 13 14 15 16 17 18 19 20 21 22 23 24 25 26 27 28 29 30 31 32 33 34 35 36 37 38 39 40 41 42 43 44 45 46 47 48 49 50

000
ASUS43 KLMK 211902
RWRKY
KENTUCKY REGIONAL WEATHER ROUNDUP
NATIONAL WEATHER SERVICE LOUISVILLE KY
300 PM EDT SUN SEP 21 2014

NOTE "FAIR" INDICATES FEW OR NO CLOUDS BELOW 12,000 FEET
WITH NO SIGNIFICANT WEATHER AND/OR OBSTRUCTIONS TO VISIBILITY.

KYZ001>023-026-027-061>063-070>075-212000-
WESTERN AND SOUTH CENTRAL KENTUCKY

CITY           SKY/WX    TMP DP  RH WIND       PRES   REMARKS
PADUCAH        SUNNY     83  49  30 NW7       29.99F
HENDERSON      SUNNY     79  46  31 NW15      29.96F
OWENSBORO      SUNNY     79  51  37 NW14G23   29.95F
HOPKINSVILLE   MOSUNNY   82  67  60 NW13G21   29.95F
BOWLING GREEN  MOSUNNY   83  65  54 W14G20    29.92F
GLASGOW        PTSUNNY   79  66  63 W10       29.92F
$$

KYZ024-025-028>034-038-045-046-053-212000-
NORTH CENTRAL KENTUCKY

CITY           SKY/WX    TMP DP  RH WIND       PRES   REMARKS
LOUISVILLE/SDF MOSUNNY   80  49  33 NW17G23   29.90R
LOUISVILLE/LOU SUNNY     79  46  31 W15G23    29.90R
FORT KNOX      SUNNY     78  47  33 W17G23    29.91R
$$

KYZ035>037-039>044-047>052-055>060-089>105-212000-
NORTHEAST KENTUCKY

CITY           SKY/WX    TMP DP  RH WIND       PRES   REMARKS
LEXINGTON      MOSUNNY   83  59  44 W21G29    29.86F
COVINGTON      SUNNY     77  45  32 W21G30    29.86S
FRANKFORT      MOSUNNY   79  59  50 W14G23    29.86F
$$

KYZ054-064>069-076>088-106>120-212000-
SOUTHEAST KENTUCKY

CITY           SKY/WX    TMP DP  RH WIND       PRES   REMARKS
JACKSON        CLOUDY    75  67  76 MISG      29.89F
LONDON         CLOUDY    76  65  68 W12       29.92F
SOMERSET       PTSUNNY   77  64  65 W14       29.93F
MIDDLESBORO    DRIZZLE   74  69  84 CALM      29.92F
MONTICELLO     PTCLDY    81  69  66 W9G17     29.94F
$$




USA.gov is the U.S. government's official web portal to all federal, state and local government web resources and services.